Regional Weather Roundup
Issued by NWS Sioux Falls, SD

Home | Current Version | Previous Version | Text Only | Print | Product List | Glossary Off
Versions: 1 2 3 4 5 6 7 8 9 10 11 12 13 14 15 16 17 18 19 20 21 22 23 24 25 26 27 28 29 30 31 32 33 34 35 36 37 38 39 40 41 42 43 44 45 46 47 48 49 50

419
ASUS43 KFSD 040702
RWRFSD

WEATHER ROUNDUP FOR SE SOUTH DAKOTA/SW MINNESOTA/NW IOWA
NATIONAL WEATHER SERVICE SIOUX FALLS SD
100 AM CST SUN DEC 04 2016

NOTE: "FAIR" INDICATES FEW OR NO CLOUDS BELOW 12,000 FEET WITH NO
SIGNIFICANT WEATHER AND OR OBSTRUCTIONS TO VISIBILITY.


SDZ038>040-050-052>070-040800-
SOUTHEAST SOUTH DAKOTA

CITY           SKY/WX    TMP DP  RH WIND       PRES   REMARKS
BROOKINGS      CLOUDY    32  30  93 S20       29.94S FOG     WCI  20
CHAMBERLAIN    PTCLDY    27  24  87 SW5       29.90F WCI  22
HURON          MOCLDY    31  31 100 S9        29.90F WCI  23
MADISON        CLOUDY    32  32 100 S16       29.93F FOG     WCI  21
MITCHELL       PTCLDY    33  31  92 S9        29.93F WCI  25
SIOUX FALLS    CLOUDY    34  33  96 S13       29.97F FOG     WCI  25
WINNER         FAIR      31  22  69 SW7       29.91F WCI  24
YANKTON        CLOUDY    36  30  80 S10       29.97F
$$

MNZ071-072-080-081-089-090-097-098-040800-
SOUTHWEST MINNESOTA

CITY           SKY/WX    TMP DP  RH WIND       PRES   REMARKS
FAIRMONT       LGT RAIN  33  32  96 S15       30.04F WCI  23
JACKSON        CLOUDY    32  32 100 S13       30.02F FOG     WCI  22
LUVERNE        CLOUDY    32  32 100 S12       29.99F WCI  23
MARSHALL       CLOUDY    35  32  88 S17       29.97F WCI  25
MONTEVIDEO     CLOUDY    34  34 100 SW8       30.00F WCI  27
PIPESTONE      CLOUDY    34  34 100 SW15G21   29.96S FOG     WCI  24
REDWOOD FALLS  CLOUDY    34  31  88 SE10      30.01F WCI  26
TRACY          CLOUDY    35  33  92 S13G20    29.98F WCI  26
WINDOM         CLOUDY    34  34 100 S10       30.00F WCI  26
WORTHINGTON    CLOUDY    33  32  96 S13       29.99F WCI  24
$$

IAZ001>003-012>014-020>022-031-032-NEZ013-014-SDZ071-040800-
NORTHWEST IOWA

CITY           SKY/WX    TMP DP  RH WIND       PRES   REMARKS
CHEROKEE       CLOUDY    33  33 100 S8        30.02F WCI  26
DENISON        CLOUDY    34  34 100 S6        30.00F WCI  29
ESTHERVILLE    LGT SNOW  32  32 100 S14       30.03F FOG     WCI  22
LE MARS        CLOUDY    34  34 100 S12       30.02F WCI  25
ORANGE CITY    CLOUDY    34  34 100 S12       30.00F WCI  25
SHELDON        CLOUDY    34  34 100 S13       29.99F WCI  25
SIOUX CITY     CLOUDY    35  33  92 S7        30.02F WCI  29
SPENCER        CLOUDY    33  33 100 S16       30.02F WCI  23
STORM LAKE     MIX PCPN  32  32 100 SE10      30.01F WCI  24
$$

ABBREVIATIONS USED IN REMARKS
   TC - TEMPERATURE IN CELSIUS
  WCI - WIND CHILL INDEX
   HX - HEAT INDEX
  VSB - VISIBILITY





USA.gov is the U.S. government's official web portal to all federal, state and local government web resources and services.